User: anonymous   Login
Location: Vancouver
(49.2500°N, 123.1330°W)
Time: 02:12:04
(UTC-08:00)
Language:

H-2A R/B - Orbit

View from above orbital plane
View from above orbital plane
View from above satellite
View from above satellite

Ground track
Ground track

The orbit data is extracted from the following two-line orbital elements,

1 27601U 02056E   15031.89913992  .00000207  00000-0  91598-4 0  2953
2 27601 098.4636 114.1070 0071672 344.0322 146.8360 14.31523514633716
Epoch (UTC): 31 January 2015 21:34:45
Eccentricity: 0.0071672
inclination: 98.4636°
perigee height: 735 km
apogee height: 838 km
right ascension of ascending node: 114.1070°
argument of perigee: 344.0322°
revolutions per day: 14.31523514
mean anomaly at epoch: 146.8360°
orbit number at epoch: 63371

The dashed part of the orbit path shows where the satellite is in the earth's shadow,  

DLR